DLH1498 EDDF-LPFR

Flight info

Callsign DLH1498
Flight time N/A
Altitude 32000
Route ANEKI2L/18 ANEKI DCT VABEN DCT OVTEC DCT OBORN DCT MOROK/N0447F330 DCT GILIR DCT NINTU DCT MEBAK DCT REPSI DCT LERGA DCT MINSO DCT NARAK DCT AGN/N0454F350 DCT PIPOR L866 PPN DCT MIRPO DCT DGO DCT NEA L14 ADINO DCT RAKOD DCT ELVAR DCT ALAGU DCT USALU
Aircraft A321/M-SDE2E3FGIJ1LORWXYZ/HB1

Departure

Time N/A
Airport Frankfurt Main Airport (EDDF)

Arrival

Time 2026-05-04 18:54
Airport Faro - Gago Coutinho International Airport (LPFR)
Time Latitude Longitude Altitude Speed Heading
2026-05-04 16:35 47.37997 6.63406 35032 ft 415 kts 217°
2026-05-04 16:36 47.31353 6.55098 35039 ft 417 kts 220°
2026-05-04 16:37 47.24717 6.46797 35051 ft 417 kts 220°
2026-05-04 16:38 47.15859 6.35756 35037 ft 417 kts 220°
2026-05-04 16:39 47.04544 6.22540 35043 ft 418 kts 208°
2026-05-04 16:40 46.94206 6.14692 35031 ft 419 kts 209°
2026-05-04 16:41 46.81261 6.04872 35047 ft 419 kts 209°
2026-05-04 16:43 46.68306 5.95111 35035 ft 419 kts 209°
2026-05-04 16:43 46.60534 5.89288 35041 ft 419 kts 209°
2026-05-04 16:45 46.44998 5.77694 35036 ft 418 kts 209°
2026-05-04 16:46 46.32045 5.68091 35038 ft 418 kts 209°
2026-05-04 16:47 46.26908 5.64283 35009 ft 406 kts 209°
2026-05-04 16:47 46.21921 5.60602 35008 ft 401 kts 209°
2026-05-04 16:48 46.14792 5.54451 35007 ft 396 kts 224°
2026-05-04 16:48 46.12939 5.51524 35008 ft 396 kts 233°
2026-05-04 16:49 46.06661 5.38462 35006 ft 397 kts 234°
2026-05-04 16:50 46.00354 5.25419 35027 ft 397 kts 234°
2026-05-04 16:51 45.95618 5.15633 35031 ft 398 kts 234°
2026-05-04 16:52 45.89323 5.02646 35298 ft 399 kts 234°
2026-05-04 16:52 45.87729 4.99384 35465 ft 400 kts 234°
2026-05-04 16:53 45.85039 4.93879 35526 ft 406 kts 234°
2026-05-04 16:54 45.78491 4.80513 35527 ft 411 kts 234°
2026-05-04 16:55 45.68612 4.60462 35661 ft 412 kts 234°
2026-05-04 16:56 45.65305 4.53777 35923 ft 412 kts 234°
2026-05-04 16:56 45.60311 4.43700 35975 ft 415 kts 234°
2026-05-04 16:57 45.55253 4.33562 35975 ft 421 kts 233°
2026-05-04 16:58 45.48466 4.19992 35974 ft 422 kts 233°
2026-05-04 17:00 45.38168 3.99526 35986 ft 424 kts 233°
2026-05-04 17:01 45.29554 3.82535 36002 ft 424 kts 233°
2026-05-04 17:02 45.22691 3.68953 35971 ft 425 kts 234°
2026-05-04 17:03 45.17638 3.58599 35970 ft 426 kts 234°
2026-05-04 17:03 45.12545 3.48273 35948 ft 426 kts 233°
2026-05-04 17:04 45.05720 3.34580 35964 ft 426 kts 233°
2026-05-04 17:05 44.98904 3.20901 35967 ft 425 kts 233°
2026-05-04 17:06 44.93759 3.10634 35957 ft 425 kts 233°
2026-05-04 17:07 44.89200 3.01582 35961 ft 425 kts 233°
2026-05-04 17:07 44.85193 2.93649 35960 ft 425 kts 233°
2026-05-04 17:08 44.80262 2.83227 35959 ft 427 kts 236°
2026-05-04 17:09 44.77106 2.76192 35967 ft 427 kts 236°
2026-05-04 17:09 44.73875 2.69109 35968 ft 428 kts 236°
2026-05-04 17:10 44.65705 2.51535 35949 ft 431 kts 235°
2026-05-04 17:11 44.62404 2.44482 35960 ft 432 kts 235°
2026-05-04 17:12 44.57476 2.33944 35956 ft 432 kts 235°
2026-05-04 17:13 44.49217 2.16372 35962 ft 432 kts 234°
2026-05-04 17:14 44.42554 2.02257 35958 ft 434 kts 234°
2026-05-04 17:15 44.37568 1.91758 35965 ft 433 kts 234°
2026-05-04 17:16 44.30895 1.77767 35963 ft 432 kts 233°
2026-05-04 17:17 44.24341 1.63689 35964 ft 433 kts 235°
2026-05-04 17:18 44.17883 1.49541 35976 ft 433 kts 234°
2026-05-04 17:19 44.11361 1.35473 35969 ft 432 kts 234°
2026-05-04 17:20 44.04832 1.21449 35967 ft 432 kts 234°
2026-05-04 17:20 43.99923 1.10957 35978 ft 432 kts 234°
2026-05-04 17:21 43.93348 0.96926 35968 ft 434 kts 234°
2026-05-04 17:22 43.90046 0.89914 35975 ft 435 kts 234°
2026-05-04 17:23 43.83693 0.75623 36002 ft 436 kts 237°
2026-05-04 17:24 43.79102 0.64714 35986 ft 437 kts 237°
2026-05-04 17:25 43.72834 0.50276 35992 ft 438 kts 237°
2026-05-04 17:26 43.66538 0.35842 36003 ft 439 kts 237°
2026-05-04 17:27 43.58657 0.17817 36012 ft 439 kts 237°
2026-05-04 17:28 43.52313 0.03422 36024 ft 439 kts 237°
2026-05-04 17:29 43.42782 -0.18117 36015 ft 441 kts 237°
2026-05-04 17:31 43.34772 -0.36076 36033 ft 440 kts 237°
2026-05-04 17:32 43.26741 -0.53966 36035 ft 440 kts 237°
2026-05-04 17:33 43.20307 -0.68239 36042 ft 440 kts 237°
2026-05-04 17:34 43.13865 -0.82452 36043 ft 438 kts 237°
2026-05-04 17:35 43.06316 -0.99011 36038 ft 439 kts 237°
2026-05-04 17:36 43.03074 -1.06103 36039 ft 440 kts 237°
2026-05-04 17:36 42.99839 -1.13151 36029 ft 440 kts 237°
2026-05-04 17:37 42.96582 -1.20219 36050 ft 440 kts 237°
2026-05-04 17:37 42.93301 -1.27331 36045 ft 440 kts 237°
2026-05-04 17:38 42.90040 -1.34389 36043 ft 440 kts 237°
2026-05-04 17:38 42.86794 -1.41391 36038 ft 439 kts 237°
2026-05-04 17:39 42.81887 -1.51949 36032 ft 440 kts 237°
2026-05-04 17:39 42.78617 -1.58971 36029 ft 438 kts 237°
2026-05-04 17:40 42.75344 -1.65978 36030 ft 439 kts 237°
2026-05-04 17:40 42.72647 -1.73402 36030 ft 441 kts 251°
2026-05-04 17:41 42.70867 -1.81395 36027 ft 442 kts 251°
2026-05-04 17:41 42.69063 -1.89384 36035 ft 442 kts 251°
2026-05-04 17:42 42.67246 -1.97370 36043 ft 442 kts 251°
2026-05-04 17:42 42.65428 -2.05351 36027 ft 442 kts 251°
2026-05-04 17:43 42.63610 -2.13326 36038 ft 442 kts 251°
2026-05-04 17:43 42.61758 -2.21288 36030 ft 442 kts 250°
2026-05-04 17:44 42.59828 -2.29209 36041 ft 442 kts 250°
2026-05-04 17:44 42.57883 -2.37123 36025 ft 442 kts 250°
2026-05-04 17:45 42.55943 -2.45032 36027 ft 442 kts 250°
2026-05-04 17:45 42.54003 -2.52946 36032 ft 442 kts 250°
2026-05-04 17:46 42.52055 -2.60873 36034 ft 442 kts 250°
2026-05-04 17:46 42.50107 -2.68779 36042 ft 442 kts 251°
2026-05-04 17:47 42.48158 -2.76688 36036 ft 443 kts 250°
2026-05-04 17:47 42.46190 -2.84604 36035 ft 444 kts 250°
2026-05-04 17:48 42.43886 -2.92345 36031 ft 444 kts 245°
2026-05-04 17:48 42.41305 -2.99932 36034 ft 444 kts 244°
2026-05-04 17:49 42.38711 -3.07515 36050 ft 444 kts 245°
2026-05-04 17:49 42.36116 -3.15095 36024 ft 444 kts 245°
2026-05-04 17:50 42.33556 -3.22602 36002 ft 437 kts 245°
2026-05-04 17:50 42.31006 -3.30040 36000 ft 436 kts 245°
2026-05-04 17:51 42.28460 -3.37409 35999 ft 436 kts 245°
2026-05-04 17:51 42.25877 -3.44867 36015 ft 435 kts 245°
2026-05-04 17:52 42.23319 -3.52260 36002 ft 434 kts 245°
2026-05-04 17:52 42.20754 -3.59639 36014 ft 435 kts 245°
2026-05-04 17:53 42.18178 -3.67037 36019 ft 436 kts 245°
2026-05-04 17:53 42.15593 -3.74438 36023 ft 437 kts 245°
2026-05-04 17:54 42.13001 -3.81841 36014 ft 437 kts 245°
2026-05-04 17:54 42.10405 -3.89231 36021 ft 436 kts 245°
2026-05-04 17:55 42.07824 -3.96565 36023 ft 436 kts 245°
2026-05-04 17:55 42.05208 -4.03978 36023 ft 435 kts 245°
2026-05-04 17:56 42.02258 -4.11063 36019 ft 437 kts 232°
2026-05-04 17:56 41.97831 -4.16688 36017 ft 439 kts 223°
2026-05-04 17:57 41.93247 -4.22041 36016 ft 439 kts 224°
2026-05-04 17:57 41.88679 -4.27381 35966 ft 432 kts 224°
2026-05-04 17:58 41.84148 -4.32689 35966 ft 433 kts 224°
2026-05-04 17:58 41.79593 -4.38015 35980 ft 435 kts 224°
2026-05-04 17:59 41.75015 -4.43336 35991 ft 437 kts 224°
2026-05-04 18:00 41.68110 -4.51323 35974 ft 438 kts 224°
2026-05-04 18:00 41.63509 -4.56645 36003 ft 437 kts 224°
2026-05-04 18:01 41.58906 -4.61961 36009 ft 438 kts 224°
2026-05-04 18:01 41.54297 -4.67274 36002 ft 438 kts 224°
2026-05-04 18:02 41.47379 -4.75239 35994 ft 438 kts 224°
2026-05-04 18:02 41.42764 -4.80535 35986 ft 438 kts 224°
2026-05-04 18:03 41.38147 -4.85817 35998 ft 438 kts 224°
2026-05-04 18:03 41.33520 -4.91085 35995 ft 438 kts 224°
2026-05-04 18:04 41.28897 -4.96349 36004 ft 437 kts 224°
2026-05-04 18:05 41.21962 -5.04246 35976 ft 438 kts 224°
2026-05-04 18:05 41.17334 -5.09494 35989 ft 438 kts 224°
2026-05-04 18:06 41.10385 -5.17344 36017 ft 437 kts 224°
2026-05-04 18:06 41.05760 -5.22568 36029 ft 437 kts 224°
2026-05-04 18:07 41.01128 -5.27783 36035 ft 437 kts 224°
2026-05-04 18:07 40.96534 -5.32947 36020 ft 433 kts 224°
2026-05-04 18:08 40.91948 -5.38094 36028 ft 432 kts 224°
2026-05-04 18:08 40.87367 -5.43225 36028 ft 432 kts 224°
2026-05-04 18:09 40.78194 -5.53458 36015 ft 432 kts 224°
2026-05-04 18:10 40.73604 -5.58565 35987 ft 432 kts 225°
2026-05-04 18:10 40.69007 -5.63680 36007 ft 432 kts 225°
2026-05-04 18:11 40.64410 -5.68783 36013 ft 432 kts 224°
2026-05-04 18:11 40.59824 -5.73857 35983 ft 429 kts 225°
2026-05-04 18:12 40.55290 -5.78867 35986 ft 429 kts 225°
2026-05-04 18:12 40.50726 -5.83908 35986 ft 429 kts 225°
2026-05-04 18:13 40.46155 -5.88949 35983 ft 429 kts 225°
2026-05-04 18:14 40.39285 -5.96500 35994 ft 430 kts 225°
2026-05-04 18:14 40.34687 -6.01535 36000 ft 431 kts 224°
2026-05-04 18:15 40.25467 -6.11607 36002 ft 432 kts 225°
2026-05-04 18:16 40.20852 -6.16646 36004 ft 433 kts 225°
2026-05-04 18:16 40.16228 -6.21686 36005 ft 433 kts 225°
2026-05-04 18:18 40.02698 -6.36355 35975 ft 430 kts 225°
2026-05-04 18:18 39.98112 -6.41299 36068 ft 421 kts 225°
2026-05-04 18:18 39.95869 -6.43712 35481 ft 418 kts 225°
2026-05-04 18:19 39.91409 -6.48528 34956 ft 418 kts 226°
2026-05-04 18:19 39.86917 -6.53378 34985 ft 420 kts 226°
2026-05-04 18:20 39.82410 -6.58224 34991 ft 421 kts 226°
2026-05-04 18:20 39.77889 -6.63066 34994 ft 421 kts 226°
2026-05-04 18:21 39.73371 -6.67900 34997 ft 421 kts 225°
2026-05-04 18:21 39.68845 -6.72726 35014 ft 422 kts 225°
2026-05-04 18:22 39.64306 -6.77566 35025 ft 422 kts 225°
2026-05-04 18:22 39.59763 -6.82404 34993 ft 423 kts 226°
2026-05-04 18:23 39.55208 -6.87240 35028 ft 423 kts 226°
2026-05-04 18:23 39.50654 -6.92077 35038 ft 424 kts 226°
2026-05-04 18:24 39.46088 -6.96907 35042 ft 424 kts 226°
2026-05-04 18:24 39.41520 -7.01733 35054 ft 424 kts 226°
2026-05-04 18:25 39.36951 -7.06552 35053 ft 424 kts 226°
2026-05-04 18:25 39.32387 -7.11364 35033 ft 424 kts 226°
2026-05-04 18:26 39.27806 -7.16170 35053 ft 424 kts 226°
2026-05-04 18:26 39.23178 -7.20899 35054 ft 429 kts 220°
2026-05-04 18:27 39.20514 -7.22719 35043 ft 440 kts 210°
2026-05-04 18:27 39.17559 -7.23909 35048 ft 448 kts 204°
2026-05-04 18:27 39.11533 -7.25998 35022 ft 449 kts 204°
2026-05-04 18:28 39.05500 -7.28092 35044 ft 449 kts 204°
2026-05-04 18:28 38.99464 -7.30204 35065 ft 449 kts 204°
2026-05-04 18:29 38.93471 -7.32293 35038 ft 435 kts 204°
2026-05-04 18:29 38.90594 -7.33277 34974 ft 424 kts 204°
2026-05-04 18:29 38.87763 -7.34252 34679 ft 418 kts 204°
2026-05-04 18:30 38.82197 -7.36200 34207 ft 412 kts 205°
2026-05-04 18:30 38.79443 -7.37170 33964 ft 410 kts 205°
2026-05-04 18:30 38.76698 -7.38132 33687 ft 408 kts 205°
2026-05-04 18:31 38.73961 -7.39086 33414 ft 406 kts 205°
2026-05-04 18:31 38.71238 -7.40029 33153 ft 404 kts 205°
2026-05-04 18:31 38.68528 -7.40968 32889 ft 402 kts 205°
2026-05-04 18:31 38.65843 -7.41896 32519 ft 397 kts 205°
2026-05-04 18:32 38.63190 -7.42805 32081 ft 392 kts 205°
2026-05-04 18:32 38.60570 -7.43702 31654 ft 388 kts 205°
2026-05-04 18:32 38.57971 -7.44596 31222 ft 385 kts 205°
2026-05-04 18:32 38.55346 -7.45514 30796 ft 401 kts 205°
2026-05-04 18:33 38.52581 -7.46500 30348 ft 423 kts 204°
2026-05-04 18:33 38.49711 -7.47513 29840 ft 431 kts 204°
2026-05-04 18:33 38.46816 -7.48507 29371 ft 431 kts 203°
2026-05-04 18:33 38.43919 -7.49485 28923 ft 429 kts 203°
2026-05-04 18:34 38.41035 -7.50457 28424 ft 427 kts 202°
2026-05-04 18:34 38.38174 -7.51423 28035 ft 425 kts 202°
2026-05-04 18:34 38.35292 -7.52407 27586 ft 436 kts 202°
2026-05-04 18:34 38.32336 -7.53429 27132 ft 442 kts 202°
2026-05-04 18:35 38.29368 -7.54453 26681 ft 442 kts 202°
2026-05-04 18:35 38.26408 -7.55468 26237 ft 439 kts 202°
2026-05-04 18:35 38.23468 -7.56474 25771 ft 436 kts 202°
2026-05-04 18:35 38.20543 -7.57469 25311 ft 434 kts 201°
2026-05-04 18:36 38.17634 -7.58455 25056 ft 431 kts 201°
2026-05-04 18:36 38.14738 -7.59438 25043 ft 431 kts 201°
2026-05-04 18:36 38.11841 -7.60427 25061 ft 432 kts 201°
2026-05-04 18:36 38.08907 -7.61297 25054 ft 438 kts 194°
2026-05-04 18:37 38.05832 -7.61471 25061 ft 446 kts 187°
2026-05-04 18:37 38.02730 -7.61478 25059 ft 446 kts 187°
2026-05-04 18:37 38.00673 -7.61476 25059 ft 446 kts 187°
2026-05-04 18:37 37.96520 -7.61465 25060 ft 446 kts 187°
2026-05-04 18:38 37.93466 -7.61454 25022 ft 439 kts 186°
2026-05-04 18:38 37.90465 -7.61439 25066 ft 432 kts 187°
2026-05-04 18:38 37.87411 -7.61443 25061 ft 445 kts 187°
2026-05-04 18:38 37.85310 -7.61451 25063 ft 449 kts 187°
2026-05-04 18:39 37.81152 -7.61467 25067 ft 452 kts 187°
2026-05-04 18:39 37.79024 -7.61472 25019 ft 453 kts 186°
2026-05-04 18:39 37.75914 -7.61470 24526 ft 434 kts 186°
2026-05-04 18:39 37.72919 -7.61455 22743 ft 432 kts 186°
2026-05-04 18:40 37.69904 -7.61450 20721 ft 434 kts 185°
2026-05-04 18:40 37.66890 -7.61452 18878 ft 433 kts 185°
2026-05-04 18:40 37.63895 -7.61458 17104 ft 426 kts 185°
2026-05-04 18:40 37.60956 -7.61464 15424 ft 419 kts 184°
2026-05-04 18:41 37.58093 -7.61467 14487 ft 399 kts 184°
2026-05-04 18:41 37.55428 -7.61457 14072 ft 367 kts 184°
2026-05-04 18:41 37.52965 -7.61445 13487 ft 345 kts 184°
2026-05-04 18:41 37.50644 -7.61443 12730 ft 332 kts 185°
2026-05-04 18:42 37.48428 -7.61442 12569 ft 308 kts 185°
2026-05-04 18:42 37.46302 -7.61443 12238 ft 304 kts 185°
2026-05-04 18:42 37.44174 -7.61449 11885 ft 300 kts 185°
2026-05-04 18:42 37.42123 -7.61457 11524 ft 298 kts 184°
2026-05-04 18:43 37.40058 -7.61465 11133 ft 296 kts 184°
2026-05-04 18:43 37.38014 -7.61472 10777 ft 293 kts 184°
2026-05-04 18:43 37.35986 -7.61476 10425 ft 290 kts 184°
2026-05-04 18:43 37.33975 -7.61476 10075 ft 288 kts 184°
2026-05-04 18:44 37.31981 -7.61478 9699 ft 286 kts 184°
2026-05-04 18:44 37.30643 -7.61480 9459 ft 284 kts 184°
2026-05-04 18:44 37.28057 -7.61482 9003 ft 279 kts 182°
2026-05-04 18:44 37.26126 -7.61480 8668 ft 276 kts 184°
2026-05-04 18:45 37.24221 -7.61478 8337 ft 273 kts 184°
2026-05-04 18:45 37.22333 -7.61477 8006 ft 269 kts 183°
2026-05-04 18:45 37.20468 -7.61473 7679 ft 266 kts 184°
2026-05-04 18:45 37.18622 -7.61472 7359 ft 264 kts 183°
2026-05-04 18:46 37.16797 -7.61474 7037 ft 262 kts 182°
2026-05-04 18:46 37.14978 -7.61477 6718 ft 261 kts 181°
2026-05-04 18:46 37.13174 -7.61478 6391 ft 257 kts 181°
2026-05-04 18:46 37.11424 -7.61476 6071 ft 248 kts 183°
2026-05-04 18:47 37.09730 -7.61478 5768 ft 239 kts 182°
2026-05-04 18:47 37.08099 -7.61730 5466 ft 234 kts 197°
2026-05-04 18:47 37.06582 -7.62399 5190 ft 229 kts 208°
2026-05-04 18:47 37.05138 -7.63211 5093 ft 228 kts 206°
2026-05-04 18:48 37.03730 -7.63988 5001 ft 215 kts 207°
2026-05-04 18:48 37.02375 -7.64729 4708 ft 211 kts 207°
2026-05-04 18:48 37.01034 -7.65465 4340 ft 211 kts 206°
2026-05-04 18:48 36.99714 -7.66250 4016 ft 208 kts 218°
2026-05-04 18:49 36.98653 -7.67454 4009 ft 207 kts 237°
2026-05-04 18:49 36.97988 -7.69014 4020 ft 202 kts 256°
2026-05-04 18:49 36.97778 -7.70712 3931 ft 196 kts 275°
2026-05-04 18:49 36.97969 -7.72383 3729 ft 193 kts 283°
2026-05-04 18:50 36.98208 -7.74023 3480 ft 190 kts 284°
2026-05-04 18:50 36.98444 -7.75648 3235 ft 190 kts 285°
2026-05-04 18:50 36.98678 -7.77269 2964 ft 190 kts 284°
2026-05-04 18:50 36.98914 -7.78906 2728 ft 192 kts 283°
2026-05-04 18:51 36.99147 -7.80534 2472 ft 188 kts 284°
2026-05-04 18:51 36.99369 -7.82088 2226 ft 179 kts 284°
2026-05-04 18:51 36.99581 -7.83568 1981 ft 165 kts 283°
2026-05-04 18:51 36.99770 -7.84892 1784 ft 145 kts 283°
2026-05-04 18:52 36.99942 -7.86092 1585 ft 136 kts 285°
2026-05-04 18:52 37.00109 -7.87256 1400 ft 132 kts 284°
2026-05-04 18:52 37.00271 -7.88382 1232 ft 133 kts 281°
2026-05-04 18:52 37.00430 -7.89505 1052 ft 129 kts 282°
2026-05-04 18:53 37.00586 -7.90618 872 ft 130 kts 281°
2026-05-04 18:53 37.00742 -7.91736 667 ft 129 kts 280°
2026-05-04 18:53 37.00903 -7.92846 498 ft 132 kts 281°
2026-05-04 18:53 37.01061 -7.93972 361 ft 133 kts 284°
2026-05-04 18:54 37.01216 -7.95091 215 ft 130 kts 282°
2026-05-04 18:54 37.01383 -7.96193 66 ft 129 kts 284°
2026-05-04 18:54 37.01532 -7.97164 21 ft 84 kts 279°
2026-05-04 18:54 37.01580 -7.97532 19 ft 19 kts 280°
2026-05-04 18:55 37.01614 -7.97779 21 ft 28 kts 282°
2026-05-04 18:55 37.01740 -7.97767 20 ft 0 kts 64°
2026-05-04 18:55 37.01742 -7.97761 20 ft 0 kts 64°
2026-05-04 18:56 37.01744 -7.97756 20 ft 0 kts 64°
2026-05-04 18:56 37.01747 -7.97748 20 ft 0 kts 64°
2026-05-04 18:56 37.01748 -7.97747 23 ft 1 kts 64°
2026-05-04 18:57 37.01756 -7.97723 20 ft 5 kts 69°
2026-05-04 18:57 37.01769 -7.97658 20 ft 10 kts 88°
2026-05-04 18:57 37.01767 -7.97550 20 ft 15 kts 94°
2026-05-04 18:57 37.01788 -7.97421 20 ft 16 kts 48°
2026-05-04 18:58 37.01851 -7.97312 20 ft 16 kts 100°
2026-05-04 18:58 37.01829 -7.97166 22 ft 18 kts 100°
2026-05-04 18:58 37.01804 -7.96988 20 ft 22 kts 100°
2026-05-04 18:58 37.01825 -7.96844 20 ft 15 kts 75°
2026-05-04 18:59 37.01813 -7.96717 20 ft 12 kts 102°
2026-05-04 18:59 37.01810 -7.96640 20 ft 7 kts 51°
2026-05-04 18:59 37.01864 -7.96622 22 ft 8 kts
2026-05-04 18:59 37.01877 -7.96619 20 ft 0 kts